SL-16 DEB, 39305

Orbit data source: Space-Track

SL-16 DEB, 39305 is space debris in LEO originally from a launch on Fri, 25 Dec 1992 UTC launched from the Tyuratam Missile And Space Complex (TTMTR). Debris objects in space refer to the collection of defunct objects orbiting the Earth. Examples of debris include non-operational satellites, rocket bodies, and fragments generated from explosions, collisions, or faulty payload assembly.

Loading next visibility...
Identifier
39305, 1992-093JW
Orbit
LEO
Country
Flag of CISCIS
Related business
Manufacturer
Unknown
Mission
Spacecraft
Bus & Motor
Unknown
Mass
Unknown
Launch date (UTC)
1992-12-25 (33 years ago)
Launch vehicle
Unknown
Launch site
Tyuratam Missile And Space Complex (TTMTR)
Object type
Payload
Rocket body
Debris
Shape & HBR
Unknown shape, 0.1 m
Radar Cross Section
Small (<0.1 m²)

Expand to show TLE details & history
Last TLE update: 2 days ago

TLE from 2 days ago
0 SL-16 DEB
1 39305U 92093JW  26035.33697240  .00000342  00000-0  24346-3 0  9994
2 39305  70.9602 274.3483 0092944 205.0709 154.5880 14.02354174238610
Epoch: 2026-02-04T08:05Z
TLE epoch observation values (Epoch: 2026-02-04T08:05:14.415Z)
Latitude
-0.00004°
Longitude
18.53322°
Altitude
949.141 km
Speed
7.346 km/s
True Right ascension
18h 17m 23s
True Declination
0° 00' 00"
Sunlit
Object was in daylight at epoch
Visualization orbit readout
Latitude
Unknown
Longitude
Unknown
Altitude
Unknown
Speed
Unknown
Apparent Right ascension
Unknown
Apparent Declination
Unknown
Sunlit
N/A
Visualization observer readout
Local Sidereal Time
20:37:36
Azimuth
Unknown
Elevation
Unknown
Doppler factor
Unknown
Orbital elements
Apogee altitude
951.089 km
Perigee altitude
816.102 km
Semi-major axis
7,261.732 km
Eccentricity
0.00929
Inclination
70.9602°
RAAN
274.3483°
Arg. of periapsis
205.0709°
True anomaly
155.04029°
Mean anomaly
154.588°
Eccentric anomaly
154.81462°
Mean motion
3.50738 °/min
Orbital period
102.64 mins
BSTAR
0.00024346
Loading maneuver chart data...
Computing Atmospheric mass density...

Documentation

Showing up to 5 results
|